Simultaneous Nadir Overpasses (SNOs) Predictions

Prediction of SNOs between AQUA and NPP Satellite Orbit:

Table of predicted SNOs for the next 14.0 days since TLE Epoch: 5/4/2019
Index Date (AQUA) Time (AQUA) Lat,Lon (AQUA) SZA (AQUA ) Date (NPP) Time (NPP) Lat,Lon (NPP) SZA (NPP ) Distance(km) Time Diff (sec)
1 05/06/2019 14:05:43 75.07,-154.96 81.89 05/06/2019 14:04:48 75.07,-155.03 81.95 2.10 55
2 05/06/2019 14:54:41 -76.50, 16.92 99.77 05/06/2019 14:55:03 -76.51, 17.01 99.81 2.40 22
3 05/09/2019 06:22:00 75.63, -37.55 80.54 05/09/2019 06:21:33 75.62, -37.57 80.56 0.65 27
4 05/09/2019 07:11:08 -76.55, 132.99 100.55 05/09/2019 07:11:59 -76.54, 132.91 100.58 2.04 51
5 05/11/2019 21:50:07 -72.28, -96.94 96.47 05/11/2019 21:48:53 -72.35, -97.30 96.37 14.39 74
6 05/11/2019 22:38:18 76.12, 79.81 79.28 05/11/2019 22:38:19 76.12, 79.85 79.27 1.35 1
7 05/11/2019 23:23:51 -81.37, -37.93 113.90 05/11/2019 23:25:04 -80.72, -39.28 114.20 76.66 73
8 05/14/2019 14:05:35 -75.38, 25.87 100.51 05/14/2019 14:04:48 -75.38, 25.89 100.48 0.68 47
9 05/14/2019 14:54:42 76.26,-163.87 78.47 05/14/2019 14:55:12 76.25,-163.94 78.46 2.09 30
10 05/17/2019 06:21:59 -75.52, 142.15 101.28 05/17/2019 06:21:41 -75.51, 142.05 101.24 2.92 18




NCC Satellite Simultaneous Nadir Overpasses (SNOs) Prediction Service
